Temperature
29 29 29 30 31 30 30 30 30 32 33 31 30 30 32 32 32 31 30 28 27 26 25 24 24 24 24 23 22 22 21 20 20 20 19 19 19 20 20 20 20 20 20 19
29 29 30 30 30 30 30 29 30 31 32 31 30 30 31 32 32 30 29 27 26 25 24 23 23 22 22 22 21 21 20 20 19 19 19 19 19 19 19 19 19 19 19 19
29 29 30 29 29 29 30 30 30 30 30 30 30 29 30 32 31 29 28 26 26 25 23 23 22 21 21 21 20 20 19 19 19 19 19 19 19 19 19 19 19 19 19 19
29 30 29 29 29 29 29 30 29 29 28 28 29 28 30 31 30 29 27 26 25 24 23 22 22 21 20 20 20 19 19 19 19 19 18 18 18 18 18 18 18 18 19 18
29 29 29 28 29 29 29 29 29 28 27 27 28 28 29 31 29 28 27 25 25 24 23 22 22 21 20 20 19 19 19 18 18 18 18 18 18 18 18 18 18 18 18 18
29 30 29 29 30 30 29 28 28 28 28 26 27 27 27 29 28 27 26 25 24 24 23 23 22 21 20 20 19 19 18 18 18 17 17 17 17 17 17 17 17 17 17 17
28 29 30 30 29 29 28 27 26 26 26 26 26 25 26 28 28 28 27 26 25 24 24 23 22 21 20 20 19 19 18 17 17 17 17 16 16 17 16 17 17 17 16 16
26 26 28 29 29 27 27 27 25 24 25 26 27 27 28 28 28 27 26 25 25 24 24 23 22 22 21 20 19 19 18 17 16 16 16 16 16 16 16 16 16 16 16 16
26 26 29 29 29 28 27 27 28 26 25 25 27 28 27 27 27 26 26 25 25 25 24 23 23 22 21 20 19 18 17 17 16 16 15 15 15 15 15 15 15 15 15 15
28 26 28 29 29 29 28 28 27 25 24 24 25 27 26 26 26 26 26 26 25 25 24 23 22 21 20 19 18 18 17 16 16 15 15 14 14 15 15 15 15 15 15 14
28 26 27 28 28 27 28 27 27 26 25 24 23 25 28 27 27 27 26 26 25 25 24 23 22 21 20 19 18 17 16 16 15 15 14 14 14 14 14 14 14 14 14 14
28 27 26 27 28 29 28 27 26 24 24 24 24 25 28 27 27 27 26 26 25 24 24 23 22 21 20 18 18 17 16 15 15 14 14 14 13 13 13 13 13 13 13 13
26 25 24 25 27 27 27 27 27 26 25 24 23 25 28 27 27 27 26 25 24 24 23 22 21 20 19 18 17 16 16 15 14 14 13 13 13 13 12 12 12 12 12 12
26 25 24 23 25 26 26 27 27 26 25 25 25 26 27 27 27 26 26 25 24 24 23 22 21 20 19 18 17 16 15 15 14 14 13 13 12 12 12 12 12 12 12 12
26 25 25 25 26 26 26 27 27 26 26 25 25 26 26 26 26 26 25 24 24 23 23 22 21 20 19 18 17 16 15 14 14 13 13 13 12 12 12 12 12 12 12 12
26 24 24 24 25 26 26 27 27 27 26 26 26 25 26 26 25 25 24 24 23 23 22 22 21 20 19 18 17 16 15 14 14 13 13 13 12 12 12 12 12 11 11 11
25 24 23 23 25 25 25 26 27 26 26 25 23 23 24 24 23 23 23 23 23 22 22 21 21 20 19 17 16 15 15 14 14 13 13 13 12 12 12 12 11 11 11 11
25 23 23 23 23 23 25 27 27 26 24 22 22 22 21 21 21 22 22 21 21 21 21 21 20 19 18 17 16 15 15 14 14 13 13 13 13 12 12 11 11 11 11 11
25 23 23 23 23 24 25 24 24 23 22 19 19 19 19 19 20 21 20 19 19 20 20 20 19 19 18 17 16 15 15 14 14 13 13 13 13 12 12 12 11 11 11 11
24 23 22 22 22 21 21 22 22 23 21 17 17 17 17 18 18 18 18 18 18 18 19 19 19 18 18 17 16 15 15 14 14 14 13 13 13 12 12 12 12 11 11 11
24 22 22 21 21 22 19 20 21 19 15 15 15 15 15 15 15 15 15 15 16 16 17 18 18 18 18 17 16 15 14 14 14 14 13 13 13 12 12 12 12 11 11 11
24 23 22 22 21 18 15 16 14 13 13 13 13 13 13 13 13 13 13 13 14 14 15 16 16 17 17 17 16 15 14 14 14 13 13 13 13 12 12 12 12 11 11 11
22 21 22 20 16 12 11 11 11 11 11 11 11 11 12 12 12 12 12 12 12 12 13 14 14 15 16 16 15 15 14 14 13 13 13 13 12 12 12 12 12 11 11 11
20 20 20 18 14 13 10 10 10 10 10 10 10 11 11 11 11 11 11 11 10 10 11 11 12 13 14 14 15 15 14 13 13 13 13 12 12 12 12 12 12 11 11 11
14 15 16 15 12 11 11 10 10 9 10 10 10 10 11 11 11 11 10 10 10 9 9 10 10 11 12 13 14 14 14 13 13 13 12 12 12 12 12 12 12 11 12 11
10 11 12 11 9 9 9 9 9 9 9 10 10 10 10 10 10 10 10 10 9 9 9 9 9 9 11 11 12 13 13 13 13 12 12 12 12 12 12 12 11 11 11 12
Wind_Speed
8 10 10 5 4 10 11 13 13 10 6 4 9 14 17 13 6 4 2 5 7 8 8 9 8 6 3 2 3 3 4 5 5 5 7 8 8 7 6 6 5 5 5 6
7 10 4 7 7 8 9 10 12 13 8 7 10 15 16 14 12 5 1 2 2 4 5 6 6 7 6 4 2 1 3 4 6 6 6 5 6 5 6 5 4 5 5 5
8 3 4 5 7 8 10 10 10 11 12 13 16 19 19 18 13 8 6 4 3 3 5 5 5 6 7 7 6 5 4 3 5 6 5 7 5 6 7 6 5 6 6 6
7 3 3 8 10 9 10 10 10 11 14 15 17 18 16 12 11 12 10 7 5 5 5 5 5 5 5 5 5 5 4 4 4 5 6 8 8 9 9 7 6 6 7 7
7 4 6 9 9 7 9 13 13 15 16 18 18 17 16 12 7 11 11 7 5 5 4 3 3 3 3 4 4 4 4 4 5 5 6 7 8 8 7 7 7 7 6 8
9 6 6 8 9 7 8 11 15 17 16 18 14 13 11 3 8 13 11 8 5 3 1 1 1 2 2 4 4 4 4 4 5 6 6 7 8 8 9 8 7 6 6 7
7 7 5 4 7 5 6 9 9 9 7 6 4 6 8 1 9 10 9 7 4 1 2 2 2 3 3 4 4 4 4 4 5 5 6 6 7 8 9 8 7 6 6 6
7 5 3 3 5 5 6 8 8 10 12 14 13 10 4 10 9 7 4 1 2 4 4 4 4 4 4 5 5 5 4 4 4 5 5 6 7 6 6 6 6 6 5 5
6 6 6 7 7 7 8 8 10 10 14 16 12 8 8 6 4 3 3 5 6 6 5 6 7 6 6 6 6 6 5 4 5 5 5 6 6 5 5 5 5 4 3 4
7 11 12 10 8 9 10 9 8 8 10 13 13 11 3 4 4 5 5 5 6 6 7 7 6 5 4 4 5 5 4 4 5 5 5 5 4 4 4 3 3 2 1 1
10 11 13 11 10 12 10 9 9 9 10 13 16 12 10 6 3 4 7 9 8 8 7 6 5 4 4 5 5 4 4 4 4 4 4 4 3 3 3 2 2 3 3 3
11 10 11 14 15 13 9 9 10 10 12 13 16 16 11 4 5 6 9 10 9 8 7 6 6 5 5 5 5 5 5 4 3 3 2 2 2 2 2 3 4 5 6 6
8 7 11 12 7 6 8 10 12 11 12 14 16 13 7 6 9 9 8 8 7 7 7 5 4 4 5 5 4 5 4 3 3 2 1 1 2 2 3 4 5 5 5 5
4 9 12 15 16 17 17 17 17 16 14 17 19 21 17 15 13 11 8 7 8 7 6 5 3 3 4 4 4 5 4 3 3 2 2 1 2 2 3 3 4 4 3 3
4 10 13 16 19 20 21 21 19 18 18 19 20 21 18 13 12 11 9 9 10 9 8 6 4 3 3 4 4 4 4 3 2 2 2 3 3 4 4 3 3 3 2 2
7 11 16 19 20 21 22 21 19 16 15 15 16 16 16 16 14 12 11 12 12 10 10 7 5 3 4 4 5 5 4 4 3 3 4 4 5 5 5 4 4 3 2 1
12 13 16 18 19 19 16 12 9 8 11 13 14 16 19 18 18 16 13 13 13 12 10 7 5 3 3 5 5 5 5 5 5 5 5 6 6 7 6 6 5 4 3 2
9 8 8 14 16 15 9 11 10 8 12 18 18 20 21 21 20 17 14 15 15 13 11 8 5 4 4 4 5 6 6 6 6 7 7 7 7 8 8 7 6 5 4 4
4 4 7 10 14 14 9 14 12 8 7 20 20 21 23 24 22 17 19 20 17 14 11 8 6 6 5 5 6 6 7 7 7 8 7 8 9 9 9 9 7 6 5 5
7 7 7 10 14 14 9 17 16 10 4 21 22 22 23 23 19 18 23 24 21 17 12 9 8 7 6 6 6 7 8 8 8 8 7 8 9 10 10 9 8 7 6 6
7 8 11 13 14 6 12 16 14 7 11 22 22 22 22 20 18 22 25 24 22 19 15 11 9 8 7 7 8 9 9 8 7 7 7 8 8 9 10 10 9 8 7 7
10 11 10 9 10 3 18 12 9 9 15 18 19 20 21 21 23 24 24 24 23 22 19 15 10 7 7 9 9 10 10 8 7 7 7 8 9 10 11 11 10 9 8 8
6 6 5 5 5 9 15 11 10 11 14 15 18 20 21 22 23 24 23 23 23 23 21 17 15 11 8 9 11 12 10 8 8 7 8 8 9 9 10 12 12 10 9 9
8 11 6 4 9 8 11 12 12 13 14 17 18 20 21 21 23 23 22 20 20 21 21 19 18 15 10 8 12 12 10 9 9 9 8 8 8 9 10 10 10 10 10 10
9 10 7 5 8 11 12 15 16 16 17 19 20 21 21 22 22 22 21 20 18 18 18 18 18 17 14 11 11 12 12 10 10 9 9 9 10 10 10 10 8 10 8 9
6 7 6 4 6 8 12 14 17 18 19 21 22 23 23 22 23 22 21 18 18 18 17 18 18 18 17 15 12 11 12 12 11 10 10 9 10 9 9 10 7 5 5 8
Wind_Direction
219 240 254 275 320 328 322 314 316 312 319 323 295 287 283 283 274 259 315 33 28 26 24 28 17 10 27 101 145 177 207 212 224 227 222 222 230 235 236 229 215 196 188 189
231 244 278 358 333 305 289 287 287 283 282 281 278 276 277 269 261 233 152 39 43 45 47 37 22 12 6 11 9 230 239 243 238 245 250 250 251 251 243 235 213 200 191 189
268 50 34 296 274 271 276 279 291 310 321 303 288 277 265 253 230 177 166 148 105 80 56 46 35 21 8 5 358 340 333 302 278 272 266 265 262 257 254 239 223 214 209 209
274 283 288 282 279 280 288 323 326 311 299 291 290 292 289 274 201 177 158 140 123 91 75 56 42 29 7 357 352 348 335 320 305 293 275 269 262 258 255 246 234 220 214 217
283 284 279 275 283 298 301 315 305 289 281 279 276 275 278 278 204 154 127 118 108 99 83 64 34 28 353 334 334 336 336 325 313 302 290 282 276 273 274 266 248 233 221 218
281 284 271 282 297 289 290 291 283 269 263 266 286 301 293 336 99 119 129 142 150 151 151 87 1 -0 333 317 312 317 319 314 307 300 297 290 289 287 282 271 256 240 227 221
288 279 257 247 277 292 293 302 304 305 289 286 344 304 292 108 119 129 146 162 170 167 274 283 305 302 294 291 297 297 297 298 303 301 300 300 296 291 282 276 267 257 239 225
299 305 295 281 302 311 293 290 294 312 313 315 306 276 273 117 105 108 117 182 255 267 270 286 297 294 298 306 307 305 307 304 306 307 308 304 297 291 289 284 278 268 252 236
304 304 300 282 278 289 290 286 299 300 294 293 294 314 83 95 111 139 191 234 252 266 292 300 299 304 315 320 320 318 317 317 321 311 303 292 294 295 299 298 281 270 260 239
289 296 296 286 255 252 254 275 289 288 296 300 302 316 20 166 217 212 237 265 286 302 303 303 305 310 311 310 308 310 313 318 315 307 305 305 321 319 314 318 332 329 292 244
305 294 292 289 272 277 273 265 282 295 294 297 299 301 319 323 306 295 303 305 299 289 292 303 312 316 318 311 309 314 313 314 315 317 318 322 329 334 342 356 8 28 38 43
312 307 304 297 287 284 284 293 294 286 288 292 291 292 307 14 354 309 296 296 299 300 299 299 304 314 317 310 306 304 306 303 303 310 325 344 355 7 21 44 49 52 54 49
341 325 305 299 298 290 286 279 272 268 268 272 277 284 290 296 291 295 304 313 316 310 303 294 289 295 297 293 289 292 296 291 293 300 304 58 80 75 65 64 60 56 58 61
278 277 280 288 298 305 297 289 285 282 280 282 284 292 301 305 308 313 320 321 313 309 303 285 252 249 265 271 272 275 279 268 258 254 258 165 142 129 111 90 77 69 57 59
261 281 286 290 297 299 297 294 291 287 286 288 293 298 309 324 329 329 324 316 307 304 299 290 262 234 242 253 252 248 249 241 245 245 227 181 159 149 135 121 116 109 92 83
303 294 294 289 290 292 291 287 284 286 294 302 311 321 344 347 343 337 331 322 312 302 295 294 290 263 244 245 250 243 234 227 222 226 222 186 166 164 158 154 152 147 146 153
283 291 294 291 298 299 291 298 306 314 332 342 343 349 353 350 350 344 336 323 315 310 304 297 287 265 239 235 232 231 228 221 216 226 217 194 186 181 178 174 166 168 168 168
256 283 287 285 289 285 300 354 347 345 26 20 10 3 358 352 345 334 341 351 340 329 315 307 291 271 244 228 220 217 224 222 220 224 218 200 194 188 182 180 180 181 177 172
170 247 280 284 287 290 330 18 6 347 30 26 6 356 350 343 334 331 348 347 336 324 314 301 275 259 237 221 220 219 224 228 228 228 217 201 193 188 184 188 183 181 174 170
175 204 249 277 290 297 357 2 347 313 282 16 359 352 347 344 335 328 333 328 323 316 307 289 263 246 227 212 210 220 229 231 233 228 214 199 191 188 185 184 179 178 174 170
227 229 247 264 270 276 16 9 358 345 341 350 350 347 344 338 326 323 326 326 324 320 312 298 272 237 218 207 204 216 227 233 233 223 205 191 187 186 182 179 177 174 176 174
294 292 290 296 291 344 19 34 37 353 342 345 344 342 337 330 327 327 327 327 325 325 321 315 301 270 223 202 204 215 221 224 223 212 201 191 186 188 180 174 175 176 177 172
350 349 327 12 61 75 49 45 21 356 344 339 335 332 330 326 324 324 325 326 327 327 326 325 316 292 253 213 207 215 214 210 211 205 199 193 192 192 172 173 177 178 179 178
16 5 349 47 65 52 46 18 2 349 336 329 327 324 322 319 318 319 319 320 323 326 328 327 323 316 296 249 220 212 205 201 203 201 196 189 189 186 177 178 180 182 184 186
7 0 352 12 8 347 354 351 340 332 326 322 318 314 313 312 313 314 315 316 318 319 322 322 321 315 310 294 250 217 203 198 200 198 193 191 190 188 182 182 181 189 190 195
26 22 10 355 342 315 311 314 312 308 306 305 305 307 308 309 308 308 308 309 310 312 316 318 318 316 314 309 284 239 206 197 196 198 196 194 191 187 184 175 158 72 132 142
Height
1495 1496 1492 1485 1483 1486 1485 1484 1482 1474 1468 1476 1483 1483 1476 1473 1475 1479 1483 1488 1491 1493 1495 1495 1496 1497 1498 1499 1500 1501 1502 1503 1504 1505 1505 1506 1506 1508 1508 1509 1510 1510 1511 1511
1492 1493 1486 1486 1487 1488 1488 1490 1486 1477 1471 1477 1483 1482 1475 1472 1473 1477 1483 1488 1492 1495 1497 1497 1498 1499 1499 1499 1499 1499 1500 1500 1501 1501 1502 1502 1503 1503 1503 1504 1504 1505 1505 1506
1491 1489 1488 1489 1489 1490 1487 1487 1485 1484 1479 1478 1483 1483 1473 1466 1469 1475 1482 1489 1493 1496 1498 1499 1500 1500 1499 1499 1498 1498 1498 1497 1497 1498 1498 1498 1498 1498 1498 1498 1498 1499 1500 1501
1490 1486 1490 1492 1490 1488 1492 1483 1485 1489 1494 1494 1487 1494 1474 1463 1466 1473 1481 1488 1493 1496 1498 1500 1501 1501 1500 1499 1498 1497 1496 1495 1494 1494 1494 1493 1493 1492 1492 1493 1493 1493 1494 1494
1491 1487 1490 1492 1489 1487 1490 1487 1489 1490 1493 1494 1487 1490 1476 1460 1465 1472 1481 1489 1493 1496 1498 1500 1500 1500 1500 1498 1497 1495 1494 1492 1491 1490 1490 1489 1488 1487 1487 1487 1487 1487 1487 1487
1490 1487 1488 1488 1486 1486 1487 1490 1489 1485 1488 1499 1488 1491 1483 1467 1470 1476 1483 1489 1493 1495 1497 1498 1499 1499 1498 1497 1495 1494 1492 1490 1489 1487 1486 1485 1484 1483 1482 1481 1481 1480 1481 1481
1495 1488 1484 1486 1489 1487 1490 1498 1506 1504 1500 1500 1491 1497 1489 1469 1468 1474 1480 1485 1489 1492 1494 1495 1496 1496 1496 1495 1493 1491 1489 1487 1486 1484 1483 1481 1479 1478 1477 1476 1475 1475 1475 1474
1504 1502 1488 1485 1489 1493 1493 1498 1514 1523 1515 1500 1487 1486 1473 1467 1471 1477 1481 1485 1488 1490 1491 1492 1493 1493 1493 1492 1490 1488 1486 1484 1482 1480 1479 1477 1475 1473 1472 1471 1470 1469 1469 1469
1503 1502 1486 1485 1486 1489 1495 1495 1491 1502 1503 1504 1489 1474 1474 1473 1475 1479 1482 1484 1485 1486 1488 1489 1490 1490 1489 1488 1487 1485 1483 1481 1479 1477 1475 1473 1471 1469 1468 1466 1465 1464 1464 1464
1494 1501 1489 1483 1483 1484 1487 1489 1494 1503 1515 1515 1498 1486 1484 1479 1477 1477 1479 1480 1482 1483 1484 1485 1486 1486 1486 1485 1484 1482 1480 1478 1475 1473 1471 1469 1467 1465 1464 1462 1461 1460 1460 1460
1490 1499 1494 1486 1487 1488 1485 1488 1491 1495 1499 1511 1512 1497 1470 1472 1472 1474 1475 1477 1478 1479 1480 1482 1483 1483 1483 1482 1480 1479 1477 1474 1472 1470 1468 1466 1464 1462 1461 1459 1458 1457 1457 1457
1491 1493 1498 1491 1480 1477 1480 1486 1492 1505 1505 1501 1505 1496 1469 1470 1472 1473 1474 1475 1475 1476 1477 1478 1479 1479 1479 1479 1477 1476 1474 1472 1470 1468 1466 1464 1462 1460 1458 1457 1456 1455 1455 1455
1497 1504 1511 1500 1489 1483 1485 1484 1484 1487 1493 1497 1501 1491 1467 1467 1468 1469 1470 1471 1472 1473 1473 1474 1475 1475 1476 1475 1474 1473 1471 1470 1468 1466 1464 1462 1460 1459 1457 1456 1456 1456 1456 1457
1498 1503 1511 1514 1502 1490 1487 1481 1478 1481 1489 1489 1485 1477 1467 1464 1464 1465 1466 1468 1469 1469 1470 1470 1471 1471 1471 1471 1471 1470 1469 1467 1465 1464 1462 1460 1459 1458 1457 1457 1456 1456 1457 1458
1494 1500 1498 1494 1488 1484 1481 1478 1475 1476 1476 1480 1476 1472 1466 1463 1463 1463 1464 1465 1466 1466 1467 1467 1467 1467 1467 1467 1467 1466 1465 1464 1463 1462 1461 1459 1458 1457 1457 1457 1457 1458 1458 1459
1492 1498 1497 1495 1487 1481 1477 1471 1468 1468 1468 1469 1469 1469 1464 1464 1464 1464 1464 1464 1464 1463 1463 1463 1463 1463 1463 1463 1463 1463 1462 1461 1460 1460 1459 1458 1457 1457 1457 1457 1457 1459 1460 1461
1493 1496 1500 1497 1485 1481 1481 1467 1465 1467 1468 1472 1477 1476 1470 1469 1468 1467 1465 1464 1462 1461 1460 1459 1459 1459 1459 1459 1459 1459 1459 1458 1458 1457 1456 1456 1455 1455 1456 1457 1458 1459 1460 1462
1491 1497 1499 1496 1493 1499 1476 1462 1463 1467 1474 1478 1479 1479 1478 1477 1474 1470 1467 1465 1462 1461 1459 1457 1456 1456 1455 1455 1455 1454 1454 1454 1454 1454 1454 1453 1453 1454 1455 1456 1458 1459 1461 1463
1486 1495 1498 1496 1493 1483 1471 1473 1473 1476 1482 1490 1487 1485 1483 1479 1474 1470 1468 1467 1465 1462 1459 1456 1453 1452 1451 1451 1450 1450 1450 1450 1450 1450 1450 1450 1451 1451 1453 1455 1457 1459 1461 1463
1485 1491 1496 1494 1499 1498 1491 1482 1478 1477 1482 1495 1493 1490 1487 1482 1479 1475 1472 1468 1463 1459 1455 1452 1449 1447 1446 1445 1445 1445 1445 1446 1446 1446 1446 1447 1448 1449 1451 1453 1455 1458 1460 1463
1486 1490 1493 1494 1495 1486 1497 1490 1485 1494 1506 1501 1497 1494 1490 1488 1486 1479 1472 1466 1461 1455 1450 1446 1443 1440 1439 1439 1439 1439 1439 1440 1441 1442 1442 1443 1444 1446 1448 1450 1453 1456 1459 1462
1483 1487 1488 1487 1492 1501 1506 1500 1508 1515 1510 1505 1501 1497 1492 1487 1481 1476 1470 1463 1457 1451 1445 1440 1437 1434 1432 1432 1433 1433 1433 1434 1435 1437 1438 1439 1441 1443 1445 1447 1451 1454 1457 1461
1484 1488 1486 1491 1507 1516 1514 1515 1516 1514 1510 1505 1501 1496 1491 1485 1479 1473 1467 1460 1454 1447 1441 1436 1432 1428 1425 1424 1424 1425 1426 1428 1430 1431 1433 1434 1437 1439 1442 1444 1447 1451 1455 1458
1491 1493 1491 1497 1510 1513 1514 1514 1512 1510 1506 1502 1497 1492 1487 1482 1475 1470 1463 1457 1450 1444 1438 1432 1427 1423 1420 1417 1416 1417 1420 1422 1424 1425 1427 1430 1432 1435 1438 1441 1444 1447 1451 1455
1511 1505 1502 1505 1513 1511 1510 1510 1508 1504 1500 1496 1492 1488 1483 1477 1470 1465 1459 1453 1447 1440 1434 1429 1423 1418 1414 1411 1409 1410 1412 1415 1418 1420 1422 1425 1428 1431 1434 1437 1441 1444 1448 1451
1520 1520 1518 1518 1520 1518 1513 1508 1505 1501 1497 1492 1487 1482 1477 1472 1466 1460 1454 1448 1442 1436 1430 1424 1418 1413 1407 1403 1401 1402 1405 1408 1411 1414 1416 1419 1423 1426 1430 1434 1437 1441 1445 1449